Flag for U.S.A. Weather past 2 weeks in Waterbury, Connecticut, U.S.A.

Now
61 °F

Clear.


Feels Like: 61 °F
Forecast: 60 / 78 °F
Wind: No wind

Location: Oxford

Current Time: Aug 28, 2014 at 8:02:09 AM

Latest Report: Aug 28, 2014 at 6:45 AM


Visibility: 10 mi

Pressure: 29.91 "Hg

Humidity: 83%

Dew point: 55 °F

Location of WaterburyLocation

Historic Weather in Waterbury — Graph

°F

Waterbury temperature yesterday

Maximum temperature yesterday: 86 °F (at 2:52 PM)
Minimum temperature yesterday: 63 °F (at 3:15 AM)
Average temperature yesterday: 70 °F

Past Weeks' High & Low Weather Summary

 TemperatureHumidityPressure
High86 °F (Aug 27, 2:52 PM)94% (Aug 20, 4:15 AM)30.22 "Hg (Aug 20, 4:15 AM)
Low52 °F (Aug 15, 5:15 AM)40% (Aug 26, 2:52 PM)29.68 "Hg (Aug 13, 1:45 PM)
Average65 °F74%30.01 "Hg
* Reported Aug 13 6:52 AM — Aug 28 6:45 AM, Waterbury, Weather by CustomWeather, © 2014

Note: Actual official high and low records may vary slightly from our data, if they occured in-between our weather recording intervals... More about our weather records

Advertising

Waterbury weather history for previous 24 hours

 ConditionsComfort  
Time TempWeatherWind HumidityBarometerVisibility
6:45 AM
Aug 28
61 °FClear.No wind83%29.91 "Hg10 mi
5:45 AM61 °FClear.8 mph83%29.90 "Hg10 mi
5:35 AM61 °FClear.8 mph83%29.89 "Hg10 mi
5:15 AM61 °FClear.6 mph77%29.89 "Hg10 mi
4:55 AM61 °FClear.8 mph77%29.89 "Hg10 mi
4:35 AM63 °FClear.13 mph73%29.88 "Hg10 mi
3:55 AM63 °FClear.10 mph73%29.88 "Hg10 mi
3:35 AM63 °FClear.8 mph77%29.89 "Hg10 mi
3:15 AM63 °FClear.12 mph77%29.89 "Hg10 mi
2:55 AM64 °FClear.14 mph73%29.89 "Hg10 mi
2:35 AM64 °FClear.12 mph78%29.90 "Hg10 mi
1:55 AM66 °FClear.5 mph83%29.91 "Hg10 mi
1:35 AM66 °FClear.7 mph83%29.91 "Hg10 mi
1:15 AM68 °FClear.9 mph83%29.92 "Hg10 mi
12:55 AM68 °FClear.7 mph83%29.92 "Hg10 mi
12:35 AM68 °FClear.8 mph83%29.93 "Hg10 mi
12:15 AM66 °FClear.7 mph88%29.93 "Hg10 mi
11:55 PM
Aug 27
66 °FPassing clouds.5 mph88%29.93 "Hg10 mi
11:35 PM66 °FClear.No wind88%29.92 "Hg10 mi
11:15 PM68 °FClear.No wind88%29.93 "Hg10 mi
10:55 PM68 °FClear.3 mph88%29.94 "Hg10 mi
10:35 PM68 °FClear.6 mph88%29.93 "Hg10 mi
10:15 PM70 °FClear.3 mph83%29.94 "Hg10 mi
9:55 PM70 °FClear.3 mph83%29.95 "Hg10 mi
9:35 PM70 °FPassing clouds.3 mph83%29.95 "Hg10 mi
9:15 PM70 °FPassing clouds.6 mph83%29.95 "Hg10 mi
8:52 PM70 °FPassing clouds.6 mph83%29.95 "Hg7 mi
6:52 PM79 °FScattered clouds.No wind61%29.93 "Hg7 mi
5:52 PM82 °FScattered clouds.10 mph58%29.92 "Hg7 mi
4:52 PM86 °FScattered clouds.9 mph55%29.93 "Hg7 mi
3:52 PM86 °FScattered clouds.8 mph55%29.95 "Hg7 mi
2:52 PM86 °FScattered clouds.6 mph55%29.96 "Hg7 mi
1:52 PM84 °FSunny.6 mph58%29.99 "Hg7 mi
12:45 PM82 °FSunny.8 mph58%30.01 "Hg10 mi
11:45 AM81 °FSunny.5 mph62%30.04 "Hg10 mi
10:45 AM79 °FSunny.5 mph61%30.05 "Hg10 mi
9:47 AM75 °FPassing clouds.7 mph69%30.06 "Hg10 mi
8:45 AM72 °FPassing clouds.No wind73%30.06 "Hg10 mi
Weather by CustomWeather, © 2014

See weather overviewHow to use our weather pages